Location: Orange Harbor Mobile Home Park
(26.6923°N, 81.7937°W)
Time: 11:33:59
(UTC+00:00)

Cosmos 1300 Rocket - Pass Details

Date: 19 September 2020
Orbit: 601 x 627 km, 82.5° (Epoch: 29 October)

Event Time Altitude Azimuth Distance (km) Brightness Sun altitude
Rises 00:38:47 0° 179° (S) 2,859 6.9 -16.7°
Reaches altitude 10° 00:41:00 10° 177° (S) 1,962 6.0 -17.1°
Maximum altitude 00:45:19 70° 94° (E) 655 3.4 -18.1°
Drops below altitude 10° 00:49:42 10° 11° (N) 1,988 6.2 -19.1°
Sets 00:51:57 0° 9° (N) 2,900 7.0 -19.5°
